Epoch 2018 July 21.0 TT = JDT 2458320.5
T 2018 July 18.21067 TT Rudenko
q 2.6690703 (2000.0) P Q
z +0.0004677 Peri. 162.80587 -0.53335016 +0.08479677
+/-0.0000001 Node 298.97626 +0.61778889 +0.71869321
e 0.9987518 Incl. 105.83230 +0.57781874 -0.69013737
From 3023 observations 2016 June 27-2020 Feb. 29, mean residual 0".4.
Finding Charts
Magnitudes Graph
m1 = 3.5 + 5 log d + 14.0 log r [ ,0] ( - 2018 July 18)
m1 = 4.3 + 5 log d + 12.0 log r [0, ] (2018 July 18 - )
The orbital elements are published on M.P.E.C. 2020-G65.
The charts are made with StellaNavigator Ver.10 (AstroArts).
The magnitudes graphs are made with Comet for Windows.
Copyright(C) Seiichi Yoshida (comet@aerith.net). All rights reserved.